Tracking 26198 objects as of 1-Oct-2022
HD Live streaming from Space Station
objects crossing your sky now

THOR ABLESTAR DEB

Track THOR ABLESTAR DEB now!
10-day predictions


NORAD ID: 2432
Int'l Code: 1963-049G
Perigee: 1,061.3 km
Apogee: 1,112.9 km
Inclination: 89.9 °
Period: 106.8 minutes
Semi major axis: 7458 km
RCS: 0.149 m2 (medium)
Launch date: December 5, 1963
Source: United States (US)
Launch site: AIR FORCE WESTERN TEST RANGE (AFWTR)

Note: This is SATELLITE DEBRIS
aabbcc
Your satellite tracking list
Your tracking list is empty




NASA's NSSDC Master Catalog

Two Line Element Set (TLE):
1 02432U 63049G   22273.90491241  .00000093  00000-0  13467-3 0  9995
2 02432  89.9020  82.5737 0034579 173.9931 357.6181 13.47915559890090
Source of the keplerian elements: AFSPC